Regional Weather Roundup
Issued by NWS

Home | Current Version | Previous Version | Graphics & Text | Print | Product List | Glossary On
Versions: 1 2 3 4 5 6 7 8 9 10 11 12 13 14 15 16 17 18 19 20 21 22 23 24 25 26 27 28 29 30 31 32 33 34 35 36 37 38 39 40 41 42 43 44 45 46 47 48 49 50
136
ASUS43 KBIS 231710
RWRND

NORTH DAKOTA REGIONAL WEATHER ROUNDUP
NATIONAL WEATHER SERVICE BISMARCK ND
1200 PM CDT SAT JUL 23 2016

NOTE: "FAIR" INDICATES FEW OR NO CLOUDS BELOW 12,000 FEET WITH NO
SIGNIFICANT WEATHER AND/OR OBSTRUCTIONS TO VISIBILITY.


NDZ001>003-009>011-017-231800-
NORTHWEST NORTH DAKOTA

CITY           SKY/WX    TMP DP  RH WIND       PRES   REMARKS
WILLISTON      SUNNY     79  51  37 W21G29    29.83F
MINOT          CLOUDY    71  65  81 NW6       29.79S
MINOT AFB      CLOUDY    69  64  85 NW8       29.79S
$$

NDZ018>021-031>035-040>046-231800-
SOUTHWEST NORTH DAKOTA

CITY           SKY/WX    TMP DP  RH WIND       PRES   REMARKS
BISMARCK       CLOUDY    72  66  81 E5        29.77F
DICKINSON      MOSUNNY   75  57  53 NW18G30   29.86R
GARRISON         N/A     69  66  90 W8        29.81R
HETTINGER ARPT SUNNY     80  56  43 NW28G36   29.88R
$$

NDZ004>008-012>016-024-026-027-054-231800-
NORTHEAST NORTH DAKOTA

CITY           SKY/WX    TMP DP  RH WIND       PRES   REMARKS
GRAND FORKS    TSTM      67  63  87 N14       29.78R
GRND FRKS AFB  LGT RAIN  66  64  94 NW13      29.85R
DEVILS LAKE    CLOUDY    66  63  90 E14       29.72F
$$

NDZ022-023-025-028>030-036>039-047>053-231800-
SOUTHEAST NORTH DAKOTA

CITY           SKY/WX    TMP DP  RH WIND       PRES   REMARKS
FARGO          CLOUDY    80  70  71 SE12      29.71S
JAMESTOWN      CLOUDY    65  64  97 NE8       29.76F
$$





USA.gov is the U.S. government's official web portal to all federal, state and local government web resources and services.